Location: ????????
(55.0097°N, 38.5678°E)
Time: 16:29:11
(UTC+00:00)

ATLAS 5 CENTAUR R/B - Visible Passes

Search period start: 24 July 2024 00:00
Search period end: 03 August 2024 00:00
Orbit: 416 x 1166 km, 63.3° (Epoch: 23 July)

Date Brightness Start Highest point End Pass type
(mag) Time Alt. Az. Time Alt. Az. Time Alt. Az.
24 Jul 3.3 00:20:37 10° WNW 00:24:18 21° WSW 00:28:31 10° SSW visible
24 Jul 3.6 18:37:47 10° WNW 18:41:02 27° N 18:44:50 10° NE visible
24 Jul 3.3 20:21:56 10° NW 20:25:45 34° NNE 20:30:21 10° E visible
24 Jul 1.8 22:05:27 10° NW 22:09:56 87° NE 22:15:34 10° SE visible
24 Jul 3.0 23:49:27 10° WNW 23:53:28 26° WSW 23:58:11 10° S visible
25 Jul 3.4 19:50:59 10° NW 19:54:40 31° NNE 19:59:05 10° E visible
25 Jul 2.0 21:34:31 10° NW 21:38:57 74° NE 21:44:30 10° ESE visible
25 Jul 2.8 23:18:21 10° WNW 23:22:35 31° SW 23:27:39 10° S visible
26 Jul 3.4 19:19:58 10° NW 19:23:33 29° NNE 19:27:48 10° ENE visible
26 Jul 2.2 21:03:34 10° NW 21:07:55 63° NE 21:13:21 10° ESE visible
26 Jul 2.5 22:47:15 10° WNW 22:51:38 38° SW 22:55:46 15° S visible
27 Jul 3.5 18:48:54 10° NW 18:52:22 28° N 18:56:28 10° ENE visible
27 Jul 2.4 20:32:35 10° NW 20:36:50 54° NNE 20:42:07 10° ESE visible
27 Jul 2.2 22:16:10 10° WNW 22:20:38 46° SW 22:24:17 20° SSE visible
28 Jul 4.0 00:02:22 10° W 00:03:43 11° WSW 00:04:54 10° SW visible
28 Jul 3.5 18:17:46 10° NW 18:21:09 27° N 18:25:08 10° ENE visible
28 Jul 2.6 20:01:33 10° NW 20:05:42 47° NNE 20:10:48 10° ESE visible
28 Jul 2.0 21:45:04 10° NW 21:49:36 56° SW 21:53:05 22° SSE visible
28 Jul 3.8 23:30:10 10° W 23:32:48 14° WSW 23:33:43 14° SW visible
29 Jul 2.8 19:30:29 10° NW 19:34:30 41° NNE 19:39:26 10° E visible
29 Jul 1.9 21:13:58 10° NW 21:18:30 68° SW 21:22:03 22° SSE visible
29 Jul 3.6 22:58:30 10° WNW 23:01:49 18° WSW 23:02:42 17° SW visible
30 Jul 3.0 18:59:22 10° NW 19:03:16 37° NNE 19:08:00 10° E visible
30 Jul 1.8 20:42:50 10° NW 20:47:21 82° SW 20:51:08 21° SE visible
30 Jul 3.3 22:27:02 10° WNW 22:30:47 22° WSW 22:31:47 21° SW visible
31 Jul 3.1 18:28:11 10° NW 18:31:58 33° NNE 18:36:30 10° E visible
31 Jul 1.8 20:11:41 10° NW 20:16:09 84° NE 20:20:18 18° SE visible
31 Jul 3.1 21:55:38 10° WNW 21:59:42 27° SW 22:00:57 24° SW visible
01 Aug 2.0 19:40:30 10° NW 19:44:55 71° NE 19:49:30 15° ESE visible
01 Aug 2.8 21:24:16 10° WNW 21:28:33 33° SW 21:30:10 27° SSW visible
02 Aug 2.2 19:09:17 10° NW 19:13:36 60° NNE 19:18:45 11° ESE visible
02 Aug 2.6 20:52:55 10° WNW 20:57:20 40° SW 20:59:24 29° S visible
